CSN6335 VMMC-ZSPD

Flight info

Callsign CSN6335
Flight time 1h 51m
Altitude 37100
Route NUDPI V601 DOTMI/K0906S1250 A470 LJG B221 SHZ W58 BK BK91A
Aircraft A359/H-SDE2E3GHIJ3J4J5LM1ORWXY/LB1D1

Departure

Time 2026-05-04 09:14
Airport Macau International Airport (VMMC)

Arrival

Time 2026-05-04 11:05
Airport Shanghai Pudong International Airport (ZSPD)
Time Latitude Longitude Altitude Speed Heading
2026-05-04 08:48 22.15644 113.57479 35 ft 0 kts 327°
2026-05-04 09:05 22.15627 113.57491 33 ft 4 kts 325°
2026-05-04 09:05 22.15606 113.57506 35 ft 3 kts 326°
2026-05-04 09:05 22.15586 113.57516 32 ft 4 kts 19°
2026-05-04 09:05 22.15569 113.57498 31 ft 4 kts 58°
2026-05-04 09:06 22.15563 113.57490 33 ft 0 kts 55°
2026-05-04 09:07 22.15565 113.57492 31 ft 3 kts 55°
2026-05-04 09:08 22.15595 113.57538 34 ft 11 kts 58°
2026-05-04 09:08 22.15588 113.57642 35 ft 18 kts 119°
2026-05-04 09:08 22.15503 113.57782 35 ft 26 kts 123°
2026-05-04 09:08 22.15388 113.57969 35 ft 33 kts 124°
2026-05-04 09:09 22.15250 113.58193 35 ft 39 kts 123°
2026-05-04 09:09 22.15102 113.58434 35 ft 17 kts 123°
2026-05-04 09:09 22.15089 113.58455 35 ft 6 kts 124°
2026-05-04 09:09 22.15044 113.58525 35 ft 16 kts 126°
2026-05-04 09:10 22.14965 113.58652 35 ft 25 kts 124°
2026-05-04 09:10 22.14855 113.58829 35 ft 32 kts 123°
2026-05-04 09:10 22.14711 113.59037 35 ft 37 kts 150°
2026-05-04 09:10 22.14450 113.59137 35 ft 43 kts 161°
2026-05-04 09:11 22.14154 113.59246 35 ft 47 kts 161°
2026-05-04 09:11 22.13830 113.59366 35 ft 50 kts 161°
2026-05-04 09:11 22.13654 113.59456 35 ft 9 kts 109°
2026-05-04 09:11 22.13673 113.59550 35 ft 17 kts 56°
2026-05-04 09:12 22.13791 113.59568 38 ft 20 kts 342°
2026-05-04 09:12 22.14029 113.59481 38 ft 75 kts 341°
2026-05-04 09:14 22.23625 113.61886 4508 ft 231 kts 30°
2026-05-04 09:14 22.25043 113.62725 5166 ft 233 kts 25°
2026-05-04 09:14 22.26504 113.63474 5841 ft 234 kts 22°
2026-05-04 09:14 22.27990 113.64232 6447 ft 239 kts 28°
2026-05-04 09:15 22.29388 113.65292 6906 ft 254 kts 36°
2026-05-04 09:15 22.30819 113.66535 7226 ft 273 kts 37°
2026-05-04 09:15 22.32338 113.67867 7625 ft 288 kts 37°
2026-05-04 09:15 22.33808 113.69384 8149 ft 297 kts 51°
2026-05-04 09:17 22.36519 113.88275 11582 ft 362 kts 120°
2026-05-04 09:18 22.34955 113.90390 11822 ft 364 kts 145°
2026-05-04 09:18 22.32803 113.91842 12180 ft 365 kts 156°
2026-05-04 09:18 22.30559 113.93144 12597 ft 369 kts 156°
2026-05-04 09:18 22.28289 113.94489 13026 ft 373 kts 155°
2026-05-04 09:19 22.26020 113.95867 13480 ft 375 kts 155°
2026-05-04 09:19 22.23759 113.97302 13908 ft 380 kts 152°
2026-05-04 09:19 22.21754 113.99214 14238 ft 394 kts 133°
2026-05-04 09:19 22.20205 114.01681 14633 ft 400 kts 125°
2026-05-04 09:20 22.18782 114.04272 14979 ft 403 kts 124°
2026-05-04 09:20 22.17353 114.06896 15299 ft 408 kts 124°
2026-05-04 09:20 22.15904 114.09543 15645 ft 411 kts 124°
2026-05-04 09:20 22.14440 114.12205 15940 ft 413 kts 125°
2026-05-04 09:21 22.12987 114.14887 16046 ft 415 kts 122°
2026-05-04 09:21 22.11665 114.17672 16409 ft 419 kts 120°
2026-05-04 09:21 22.10369 114.20488 16825 ft 420 kts 120°
2026-05-04 09:21 22.09055 114.23312 17212 ft 422 kts 120°
2026-05-04 09:22 22.07510 114.25983 17554 ft 418 kts 134°
2026-05-04 09:22 22.05395 114.28074 17941 ft 411 kts 148°
2026-05-04 09:22 22.03089 114.29912 18311 ft 413 kts 149°
2026-05-04 09:22 22.00756 114.31729 18653 ft 416 kts 149°
2026-05-04 09:23 21.98405 114.33565 19006 ft 418 kts 149°
2026-05-04 09:23 21.96142 114.35339 19317 ft 420 kts 149°
2026-05-04 09:23 21.93805 114.37180 19626 ft 422 kts 149°
2026-05-04 09:23 21.91432 114.39045 19928 ft 424 kts 149°
2026-05-04 09:25 21.85964 114.59977 21964 ft 463 kts 85°
2026-05-04 09:25 21.86254 114.63437 22254 ft 465 kts 86°
2026-05-04 09:26 21.86528 114.66914 22531 ft 467 kts 86°
2026-05-04 09:26 21.86796 114.70396 22811 ft 468 kts 86°
2026-05-04 09:26 21.87063 114.73893 23096 ft 470 kts 86°
2026-05-04 09:26 21.87329 114.77408 23385 ft 472 kts 86°
2026-05-04 09:27 21.87594 114.80937 23645 ft 474 kts 86°
2026-05-04 09:27 21.87860 114.84481 23873 ft 476 kts 86°
2026-05-04 09:27 21.88125 114.88038 24114 ft 477 kts 86°
2026-05-04 09:27 21.88392 114.91612 24351 ft 479 kts 86°
2026-05-04 09:28 21.88580 114.95199 24584 ft 481 kts 89°
2026-05-04 09:28 21.88671 114.98798 24824 ft 482 kts 90°
2026-05-04 09:28 21.88760 115.02418 25070 ft 484 kts 90°
2026-05-04 09:28 21.88859 115.06059 25288 ft 487 kts 89°
2026-05-04 09:29 21.88965 115.09699 25540 ft 489 kts 89°
2026-05-04 09:29 21.89075 115.13376 25809 ft 491 kts 89°
2026-05-04 09:29 21.89185 115.17003 26058 ft 492 kts 89°
2026-05-04 09:29 21.89297 115.20697 26321 ft 494 kts 89°
2026-05-04 09:30 21.89410 115.24401 26580 ft 496 kts 89°
2026-05-04 09:30 21.89524 115.28120 26838 ft 498 kts 89°
2026-05-04 09:30 21.89638 115.31859 27105 ft 500 kts 89°
2026-05-04 09:30 21.89750 115.35608 27348 ft 503 kts 89°
2026-05-04 09:31 21.89861 115.39385 27612 ft 505 kts 89°
2026-05-04 09:31 21.89972 115.43165 27897 ft 507 kts 89°
2026-05-04 09:31 21.90083 115.46972 28186 ft 509 kts 89°
2026-05-04 09:31 21.90193 115.50791 28462 ft 511 kts 89°
2026-05-04 09:32 21.90304 115.54629 28733 ft 513 kts 89°
2026-05-04 09:32 21.90414 115.58479 29008 ft 516 kts 89°
2026-05-04 09:34 21.95193 115.85515 30795 ft 535 kts 77°
2026-05-04 09:34 21.95998 115.89431 31072 ft 538 kts 77°
2026-05-04 09:34 21.96802 115.93385 31328 ft 541 kts 78°
2026-05-04 09:34 21.97603 115.97352 31562 ft 543 kts 77°
2026-05-04 09:35 21.98405 116.01339 31812 ft 546 kts 77°
2026-05-04 09:35 21.99213 116.05336 32034 ft 548 kts 77°
2026-05-04 09:35 22.00327 116.09268 32259 ft 549 kts 67°
2026-05-04 09:35 22.01987 116.12976 32484 ft 549 kts 57°
2026-05-04 09:37 22.23941 116.23733 34182 ft 498 kts 342°
2026-05-04 09:37 22.27238 116.22762 34534 ft 486 kts 333°
2026-05-04 09:38 22.30288 116.21286 34870 ft 477 kts 325°
2026-05-04 09:38 22.33324 116.19787 35200 ft 482 kts 331°
2026-05-04 09:38 22.36533 116.18657 35546 ft 489 kts 339°
2026-05-04 09:38 22.39904 116.18019 35892 ft 497 kts 347°
2026-05-04 09:39 22.43358 116.17733 36263 ft 499 kts 349°
2026-05-04 09:39 22.46832 116.17562 36614 ft 500 kts 351°
2026-05-04 09:39 22.50307 116.17451 36976 ft 499 kts 351°
2026-05-04 09:39 22.53777 116.17362 37136 ft 499 kts 351°
2026-05-04 09:40 22.60710 116.17184 37145 ft 497 kts 351°
2026-05-04 09:40 22.67651 116.17306 37151 ft 507 kts
2026-05-04 09:42 22.91568 116.33142 37154 ft 540 kts 32°
2026-05-04 09:43 22.97511 116.38129 37166 ft 540 kts 32°
2026-05-04 09:43 23.03458 116.43047 37156 ft 539 kts 31°
2026-05-04 09:44 23.09426 116.47967 37165 ft 539 kts 31°
2026-05-04 09:46 23.33294 116.67748 37175 ft 540 kts 32°
2026-05-04 09:46 23.39267 116.72715 37170 ft 540 kts 32°
2026-05-04 09:47 23.45068 116.77963 37172 ft 546 kts 39°
2026-05-04 09:49 23.66281 117.01948 37172 ft 550 kts 41°
2026-05-04 09:51 23.85280 117.22443 37190 ft 548 kts 35°
2026-05-04 09:51 23.91048 117.27875 37198 ft 548 kts 36°
2026-05-04 09:52 23.96772 117.33388 37212 ft 549 kts 36°
2026-05-04 09:52 24.02470 117.38959 37202 ft 551 kts 36°
2026-05-04 09:53 24.08180 117.44566 37208 ft 552 kts 36°
2026-05-04 09:53 24.13838 117.50251 37209 ft 554 kts 41°
2026-05-04 09:54 24.19127 117.56424 37230 ft 556 kts 43°
2026-05-04 09:54 24.24340 117.62683 37200 ft 557 kts 43°
2026-05-04 09:55 24.29554 117.68973 37210 ft 557 kts 43°
2026-05-04 09:55 24.34771 117.75258 37205 ft 557 kts 43°
2026-05-04 09:56 24.39987 117.81544 37202 ft 557 kts 43°
2026-05-04 09:56 24.45211 117.87841 37202 ft 558 kts 43°
2026-05-04 09:57 24.50399 117.94104 37210 ft 558 kts 43°
2026-05-04 09:57 24.55621 118.00418 37213 ft 558 kts 43°
2026-05-04 09:58 24.60912 118.06655 37212 ft 557 kts 41°
2026-05-04 09:58 24.66331 118.12736 37226 ft 557 kts 40°
2026-05-04 10:00 24.87961 118.37306 37241 ft 559 kts 41°
2026-05-04 10:04 25.25336 118.81120 37218 ft 562 kts 43°
2026-05-04 10:04 25.30623 118.87527 37223 ft 563 kts 43°
2026-05-04 10:05 25.35899 118.93913 37228 ft 562 kts 42°
2026-05-04 10:05 25.41266 119.00200 37225 ft 561 kts 41°
2026-05-04 10:06 25.46669 119.06445 37223 ft 562 kts 41°
2026-05-04 10:06 25.52059 119.12718 37227 ft 562 kts 41°
2026-05-04 10:08 25.70862 119.34679 37237 ft 560 kts 37°
2026-05-04 10:08 25.73889 119.37335 37241 ft 550 kts 26°
2026-05-04 10:08 25.77197 119.39344 37245 ft 536 kts 15°
2026-05-04 10:09 25.84153 119.42046 37236 ft 527 kts
2026-05-04 10:09 25.91172 119.44403 37236 ft 526 kts
2026-05-04 10:10 25.98190 119.46729 37232 ft 527 kts
2026-05-04 10:10 26.05205 119.49094 37246 ft 527 kts
2026-05-04 10:11 26.12226 119.51485 37249 ft 528 kts
2026-05-04 10:11 26.19241 119.53903 37231 ft 530 kts
2026-05-04 10:12 26.22672 119.55516 37247 ft 542 kts 19°
2026-05-04 10:12 26.25975 119.57590 37255 ft 546 kts 22°
2026-05-04 10:12 26.32475 119.62046 37254 ft 551 kts 24°
2026-05-04 10:13 26.38949 119.66632 37256 ft 552 kts 24°
2026-05-04 10:13 26.45434 119.71218 37254 ft 552 kts 24°
2026-05-04 10:14 26.51929 119.75791 37256 ft 553 kts 24°
2026-05-04 10:16 26.78059 119.94177 37265 ft 558 kts 24°
2026-05-04 10:16 26.84627 119.98817 37266 ft 558 kts 24°
2026-05-04 10:17 26.91191 120.03462 37268 ft 558 kts 24°
2026-05-04 10:19 27.17462 120.22112 37288 ft 558 kts 24°
2026-05-04 10:19 27.24050 120.26751 37278 ft 560 kts 24°
2026-05-04 10:20 27.30657 120.31404 37279 ft 561 kts 24°
2026-05-04 10:20 27.37262 120.36077 37290 ft 561 kts 24°
2026-05-04 10:21 27.43870 120.40767 37266 ft 562 kts 24°
2026-05-04 10:21 27.50496 120.45486 37271 ft 563 kts 24°
2026-05-04 10:22 27.60374 120.52532 37272 ft 563 kts 24°
2026-05-04 10:23 27.66984 120.57254 37286 ft 562 kts 24°
2026-05-04 10:25 27.95187 120.65000 37272 ft 515 kts 353°
2026-05-04 10:25 28.02326 120.65649 37271 ft 516 kts 353°
2026-05-04 10:26 28.09482 120.66332 37284 ft 516 kts 353°
2026-05-04 10:26 28.16592 120.67024 37271 ft 516 kts 353°
2026-05-04 10:27 28.23752 120.67722 37271 ft 516 kts 353°
2026-05-04 10:27 28.30912 120.68421 37267 ft 516 kts 353°
2026-05-04 10:28 28.38062 120.69122 37268 ft 517 kts 353°
2026-05-04 10:28 28.45229 120.69823 37263 ft 517 kts 353°
2026-05-04 10:29 28.52398 120.70525 37259 ft 517 kts 353°
2026-05-04 10:29 28.58360 120.71106 37287 ft 516 kts 353°
2026-05-04 10:30 28.65511 120.71808 37252 ft 516 kts 353°
2026-05-04 10:30 28.73833 120.72647 37253 ft 517 kts 353°
2026-05-04 10:31 28.79798 120.73305 37253 ft 517 kts 354°
2026-05-04 10:32 29.04824 120.75954 37226 ft 515 kts 353°
2026-05-04 10:33 29.11960 120.76683 37221 ft 515 kts 353°
2026-05-04 10:33 29.19096 120.77419 37232 ft 515 kts 353°
2026-05-04 10:34 29.26188 120.78152 37220 ft 515 kts 353°
2026-05-04 10:34 29.33318 120.78889 37226 ft 514 kts 353°
2026-05-04 10:35 29.40438 120.79627 37203 ft 514 kts 353°
2026-05-04 10:35 29.43993 120.79998 37035 ft 512 kts 353°
2026-05-04 10:35 29.47550 120.80367 36796 ft 514 kts 353°
2026-05-04 10:36 29.51125 120.80735 36547 ft 516 kts 353°
2026-05-04 10:36 29.54719 120.81386 36344 ft 533 kts
2026-05-04 10:36 29.58260 120.82860 36097 ft 553 kts 17°
2026-05-04 10:36 29.61541 120.85293 35796 ft 569 kts 31°
2026-05-04 10:37 29.64370 120.88543 35017 ft 582 kts 46°
2026-05-04 10:37 29.66766 120.92320 34124 ft 590 kts 54°
2026-05-04 10:37 29.68892 120.96373 33133 ft 592 kts 56°
2026-05-04 10:37 29.71016 121.00419 32178 ft 591 kts 55°
2026-05-04 10:39 29.84199 121.23892 26946 ft 565 kts 54°
2026-05-04 10:39 29.86336 121.27650 26245 ft 557 kts 54°
2026-05-04 10:39 29.88492 121.31304 25575 ft 547 kts 49°
2026-05-04 10:40 29.91109 121.34392 24846 ft 531 kts 34°
2026-05-04 10:40 29.94170 121.36638 24171 ft 515 kts 22°
2026-05-04 10:40 29.97292 121.38489 23452 ft 508 kts 21°
2026-05-04 10:40 30.00448 121.40359 22650 ft 500 kts 22°
2026-05-04 10:41 30.03472 121.42189 21901 ft 494 kts 22°
2026-05-04 10:41 30.06475 121.44035 21167 ft 486 kts 23°
2026-05-04 10:41 30.09437 121.45871 20423 ft 479 kts 24°
2026-05-04 10:41 30.12349 121.47686 19732 ft 472 kts 24°
2026-05-04 10:42 30.15204 121.49472 19124 ft 462 kts 25°
2026-05-04 10:42 30.18007 121.51228 18422 ft 455 kts 25°
2026-05-04 10:42 30.20774 121.52965 17621 ft 448 kts 25°
2026-05-04 10:42 30.23488 121.54670 16861 ft 441 kts 25°
2026-05-04 10:43 30.26159 121.56352 16129 ft 434 kts 26°
2026-05-04 10:44 30.43299 121.67791 11731 ft 366 kts 29°
2026-05-04 10:45 30.45424 121.69299 11479 ft 350 kts 29°
2026-05-04 10:45 30.47458 121.70736 11276 ft 334 kts 28°
2026-05-04 10:45 30.49392 121.72102 11115 ft 318 kts 28°
2026-05-04 10:45 30.51234 121.73401 10986 ft 303 kts 28°
2026-05-04 10:46 30.52997 121.74644 10751 ft 292 kts 28°
2026-05-04 10:46 30.54726 121.75858 10391 ft 288 kts 28°
2026-05-04 10:46 30.56521 121.76800 10043 ft 280 kts 12°
2026-05-04 10:46 30.58408 121.76905 9809 ft 276 kts 348°
2026-05-04 10:47 30.60261 121.76341 9694 ft 276 kts 341°
2026-05-04 10:47 30.62085 121.75646 9556 ft 275 kts 340°
2026-05-04 10:47 30.63900 121.74947 9432 ft 275 kts 340°
2026-05-04 10:47 30.65721 121.74253 9284 ft 274 kts 340°
2026-05-04 10:49 30.78368 121.69474 8358 ft 272 kts 341°
2026-05-04 10:49 30.80169 121.68801 8219 ft 272 kts 341°
2026-05-04 10:50 30.81962 121.68125 8085 ft 271 kts 341°
2026-05-04 10:51 30.93529 121.67962 7181 ft 258 kts 64°
2026-05-04 10:52 30.94134 121.69936 7059 ft 257 kts 71°
2026-05-04 10:52 30.94325 121.72015 6933 ft 263 kts 94°
2026-05-04 10:52 30.93663 121.73979 6807 ft 265 kts 126°
2026-05-04 10:54 30.81782 121.79191 5789 ft 261 kts 162°
2026-05-04 10:54 30.80066 121.79837 5663 ft 259 kts 162°
2026-05-04 10:56 30.76655 121.88279 4835 ft 235 kts
2026-05-04 10:56 30.78253 121.88228 4716 ft 230 kts 343°
2026-05-04 10:56 30.79784 121.87678 4600 ft 231 kts 339°
2026-05-04 10:57 30.81301 121.87060 4487 ft 231 kts 339°
2026-05-04 10:57 30.82821 121.86446 4374 ft 232 kts 339°
2026-05-04 10:57 30.84354 121.85852 4264 ft 233 kts 341°
2026-05-04 10:57 30.85967 121.85644 4151 ft 236 kts
2026-05-04 10:58 30.87572 121.85938 4039 ft 236 kts
2026-05-04 10:58 30.89138 121.86327 3944 ft 225 kts
2026-05-04 10:58 30.90647 121.86696 3861 ft 213 kts
2026-05-04 10:58 30.92076 121.86904 3786 ft 201 kts
2026-05-04 10:59 30.93421 121.86917 3737 ft 185 kts 354°
2026-05-04 10:59 30.94602 121.86681 3651 ft 165 kts 341°
2026-05-04 10:59 30.95658 121.86317 3513 ft 153 kts 339°
2026-05-04 10:59 30.96640 121.85957 3302 ft 144 kts 339°
2026-05-04 11:00 30.97567 121.85610 3089 ft 136 kts 338°
2026-05-04 11:01 31.03957 121.83200 1811 ft 138 kts 338°
2026-05-04 11:02 31.04870 121.82854 1625 ft 138 kts 338°
2026-05-04 11:02 31.05786 121.82508 1432 ft 139 kts 338°
2026-05-04 11:05 31.14510 121.79398 29 ft 15 kts 64°
2026-05-04 11:06 31.14551 121.79523 29 ft 18 kts 70°
2026-05-04 11:06 31.14596 121.79668 29 ft 14 kts 56°
2026-05-04 11:06 31.14655 121.79762 29 ft 15 kts 67°
2026-05-04 11:06 31.14662 121.79783 29 ft 1 kts 69°
2026-05-04 11:08 31.14674 121.79826 29 ft 0 kts 71°